map of LAD home
LAD - Airport
Location
City:  Luanda, Luanda, Angola
Name:Aeroporto 4 de Fevereiro
ICAO:FNLU
IATA:LAD

Details
Type:Airport (Aerodrome, Airfield)
Use:Public/Civil, Military, International (customs port of entry)
Latitude:851'30"S (-8.858374)
Longitude:1313'52"E (13.231178)
Datum:other
Elevation:243 ft (74 m)
Variation:3.31W (WMM2015 magnetic declination)
0.17 annual change
Runways:2
Longest:12190 × 148 ft (3716 × 45 m), paved

Time
Time Zone:UTC+1
Local Time:

Weather
METAR:FNLU 100200Z VRB03KT 8000 SCT018 BKN070 25/22 Q1013
TAF:FNLU 092300Z 1000/1106 20008KT 9000 FEW018 BKN020
TEMPO 1003/1009 15005KT 5000 TS DZRA SCT015 FEW022CB OVC025
BECMG 1010/1012 9999 FEW018 FEW022CB BKN023
TEMPO 1013/1017 26010KT SCT025 BKN030

Related Locations
Nearby:
Farthest:PLPA: 12062 mi / 19412 km
Palmyra Island Atoll [Palmyra Airport (Cooper)], UM

Find:

   beyond  
but within

Other Information
Maps:
NOTAMs:
Links:
Sources:

  
  • flag of Angola
  

Sectional Chart

Flight Planning
at skyvector.com

Satellite Image

Google Maps Satellite view

 

Copyright © 2004-2018 Karl L. Swartz. All rights reserved.
The Great Circle Mapper name and logo are trademarks of the Great Circle Mapper.
All other trademarks mentioned herein belong to their respective owners.
Please see credits for attibutions and further copyright information.

  Follow gcmap on Facebook Follow gcmap on Twitter Follow gcmap on Google+ GCmap on LinkedIn

hCard Microformat

Geo Microformat